Terminal Aerodrome Forecast
Issued by NWS

Home | Current Version | Previous Version | Text Only | Print | Product List | Glossary On
Versions: 1 2 3 4 5 6 7 8 9 10 11 12 13 14 15 16 17
000
FTUS42 KFFC 231120
TAFRYY
TAF
KRYY 231120Z 2312/2412 22003KT 6SM -SHRA VCTS SCT005 BKN008CB
      TEMPO 2312/2314 4SM -RA BKN004
     FM231500 22004KT 5SM -SHRA OVC012
     FM232000 24004KT P6SM VCSH SCT015 BKN030
     FM240000 20003KT P6SM VCSH SCT025 BKN040
     FM240500 20003KT P6SM VCSH OVC015
     FM241000 20003KT 6SM -SHRA VCTS OVC012CB=

USA.gov is the U.S. government's official web portal to all federal, state and local government web resources and services.